CAPE
53 71 78 92 125 144 127 106 89 64 128 164 151 146 152 157 90 174 234 299 55 20 7 31 31 55 1 34 3 26 51 27 45 71 54 35 21 18 44 82 94 4 63 47 232 217 254 674 648 611 1205 1033 1090 1057
54 54 46 85 118 129 88 85 79 35 99 119 138 110 128 58 42 40 146 154 40 38 7 23 28 29 33 39 25 12 19 1 28 140 171 90 197 214 116 82 102 120 35 92 242 529 1269 917 791 908 905 1046 1033 1055
49 58 64 85 97 113 44 67 79 88 83 115 85 54 47 70 52 95 31 229 71 29 30 18 27 37 1 0 0 11 11 6 13 27 4 12 88 276 296 143 117 195 180 627 1086 925 794 910 831 926 1068 1047 1003 1098
45 40 66 73 71 44 31 49 67 73 103 50 28 23 35 47 47 56 178 123 68 60 69 13 46 14 0 0 0 0 2 10 1 3 6 55 75 88 135 76 824 22 104 840 1159 868 831 677 699 769 1002 1049 1048 1358
37 36 33 65 77 54 54 67 78 50 23 20 31 35 46 30 36 52 81 181 132 48 43 3 0 1 0 0 0 0 0 5 4 6 26 91 63 11 123 114 8 15 18 633 600 798 703 184 118 335 381 293 506 803
12 16 48 72 75 54 30 42 34 15 2 11 36 42 23 42 34 118 109 93 83 150 74 6 26 83 205 0 0 0 0 9 6 7 24 73 22 42 149 102 19 11 18 424 323 314 0 0 0 0 0 0 0 1
20 32 47 62 68 69 52 46 39 21 3 0 0 5 20 29 31 110 63 19 2 50 20 13 30 189 404 46 19 46 18 2 16 9 11 27 2 1 31 19 40 30 68 24 53 4 1 0 0 0 0 0 0 0
35 50 59 55 54 40 57 54 55 36 20 3 0 0 9 19 10 13 18 1 6 37 31 27 15 376 255 238 179 93 22 0 24 14 20 0 3 76 21 16 18 8 11 5 7 8 4 6 1 0 0 0 0 0
19 21 28 24 24 22 27 25 21 9 5 0 0 0 5 12 8 128 0 0 0 8 24 19 18 42 227 95 76 50 41 45 7 25 94 57 46 37 26 9 21 23 14 31 18 4 7 2 0 0 0 0 6 0
8 0 0 0 5 6 7 0 0 0 0 0 1 34 113 64 0 26 81 55 28 30 15 8 48 77 108 164 50 13 13 0 29 62 44 47 42 37 48 16 29 26 1 3 3 10 5 5 4 31 0 0 0 0
0 0 0 0 0 6 2 6 8 0 0 17 15 37 60 0 45 68 46 48 34 19 12 75 157 254 89 139 69 102 89 13 18 31 58 17 21 57 34 34 27 34 50 10 0 2 16 63 103 24 39 45 23 20
0 0 0 0 0 0 5 9 11 12 19 7 2 4 5 32 57 44 48 40 38 7 39 75 168 55 22 54 159 132 45 25 31 71 11 14 24 49 35 15 38 66 47 32 20 42 43 49 90 76 56 41 18 12
0 0 0 0 0 0 0 7 2 0 0 17 33 16 17 82 88 31 51 83 89 181 269 160 175 91 141 99 21 62 57 37 66 45 13 21 20 37 52 57 66 59 28 22 2 12 12 23 48 65 50 36 20 42
0 0 0 0 0 0 0 3 0 0 11 13 10 25 9 35 57 178 215 270 378 380 271 347 239 206 170 125 223 12 56 29 38 14 43 43 28 20 89 62 37 41 65 51 28 12 10 19 20 53 42 49 32 79
0 0 0 0 0 0 0 0 0 9 6 2 1 2 10 22 101 176 208 327 222 252 411 258 161 129 145 146 181 94 51 32 8 57 44 46 99 59 51 51 63 66 54 49 20 11 10 22 32 34 49 30 50 101
0 0 0 0 0 0 0 0 20 16 33 19 23 33 140 199 158 105 186 216 255 383 360 125 139 125 106 59 32 19 28 13 8 50 82 106 132 64 65 104 125 105 53 38 22 27 26 30 45 48 35 29 13 46
0 0 0 0 0 0 0 1 70 54 97 40 53 41 38 57 164 255 241 227 331 332 240 156 125 81 43 28 17 8 2 2 32 20 225 80 190 150 129 141 159 134 145 110 66 65 88 51 34 39 24 6 27 6
0 0 0 0 0 0 0 0 40 31 31 40 54 63 90 104 174 238 208 266 327 393 257 183 141 88 77 34 30 52 49 63 137 191 360 418 287 239 430 293 168 193 186 107 76 152 163 101 54 43 56 46 83 41
0 0 0 0 0 0 0 0 16 39 42 43 63 60 50 118 164 137 164 221 177 136 135 143 52 67 143 156 252 287 463 525 545 643 649 416 390 361 311 309 259 144 39 46 49 51 44 33 46 43 32 44 49 48
0 0 0 0 0 9 4 1 8 16 31 41 51 55 63 83 111 144 102 90 82 54 34 12 34 65 81 300 355 429 727 685 622 481 189 359 157 47 47 33 32 49 42 32 7 0 12 7 2 1 0 0 5 8
0 0 0 0 1 1 10 10 27 9 25 44 49 43 51 169 193 190 308 206 147 136 124 259 392 415 342 483 552 490 465 421 514 401 253 1 5 16 15 10 9 6 9 5 3 1 0 0 0 0 0 0 0 0
5 0 2 0 5 5 25 19 15 20 13 28 89 51 24 40 91 106 204 176 98 224 312 578 830 758 656 499 567 339 458 421 434 336 113 134 163 88 22 1 8 12 6 0 0 0 0 0 0 0 0 0 0 0
1 1 3 2 2 1 17 36 26 19 32 36 62 26 29 90 62 41 31 124 182 146 664 555 405 397 236 58 60 0 80 127 56 58 42 45 27 17 18 14 12 7 5 6 4 2 1 0 0 0 0 0 0 3
0 3 0 0 47 61 130 203 168 178 119 96 144 167 191 279 304 213 106 155 379 571 358 368 64 95 50 168 3 0 0 0 1 17 6 1 15 34 16 15 16 16 5 3 4 2 1 0 0 1 2 0 1 2
1 0 165 5 201 234 154 150 176 144 116 199 195 206 250 284 94 89 82 286 305 58 33 36 25 13 6 3 0 0 0 0 0 0 0 0 0 3 10 14 0 0 0 4 7 5 1 2 4 6 5 8 10 6
16 210 46 240 240 225 170 105 117 157 154 139 122 216 321 242 78 71 38 33 13 17 18 18 19 14 10 2 0 0 0 0 0 0 2 0 0 0 1 3 3 5 0 4 1 2 3 2 4 8 10 6 5 14
106 287 579 379 207 258 371 356 324 221 126 157 176 191 73 51 26 10 16 9 5 3 7 10 9 7 10 8 3 0 0 0 0 0 0 7 7 1 1 4 9 4 4 9 3 3 3 0 0 1 3 5 6 8
421 540 464 563 540 387 388 259 102 102 131 233 146 87 22 19 12 4 10 19 29 17 4 11 0 0 2 0 0 0 0 0 0 0 0 1 5 5 1 2 4 0 0 0 0 0 0 0 0 0 0 1 4 7
495 553 608 525 456 322 380 361 183 194 96 157 194 5 12 36 31 3 0 7 0 0 1 0 2 2 0 0 0 0 1 0 0 0 0 1 2 1 3 1 1 0 0 1 0 0 0 0 0 0 1 5 8 14
312 440 423 355 432 374 366 222 201 65 0 0 2 8 7 9 5 17 44 36 14 11 18 15 7 0 0 0 0 0 1 0 0 0 0 0 0 0 0 1 2 2 2 4 2 4 0 2 3 11 11 11 14 11
154 109 127 386 320 328 155 73 51 15 6 6 13 5 5 12 66 59 12 18 21 17 5 1 0 0 0 0 0 0 0 1 0 0 0 0 0 0 0 0 0 1 2 3 4 5 8 7 9 10 14 15 22 22
80 70 66 54 275 460 292 173 68 33 29 40 41 32 32 74 57 10 4 1 0 2 0 0 0 0 0 0 0 2 0 6 7 0 0 0 0 0 0 0 0 2 4 6 7 11 11 13 16 14 18 16 18 15
56 56 39 35 44 33 258 543 337 154 27 59 108 74 55 71 38 24 24 6 0 0 1 2 0 0 1 0 0 0 0 2 0 0 0 0 0 0 0 1 4 9 8 13 14 12 14 12 15 21 16 12 13 16
CIN
-0 -0 -0 -8 -0 -0 -0 -0 -0 -1 -0 -0 -1 -0 -0 -0 -2 -0 -0 -0 -1 -0 -0 -13 -1 -0 -0 -0 -10 -0 -0 -57 -0 -0 -0 -0 -0 -0 -0 -0 -0 -0 -0 -0 -0 -0 -0 -44 -18 -0 -49 -47 -32 -30
-0 -0 -0 -0 -0 -0 -0 -1 -0 -0 -0 -4 -1 -0 -3 -1 -1 -2 -0 -0 -0 -0 -7 -8 -0 -0 -0 -0 -0 -0 -0 -0 -1 -1 -4 -32 -8 -12 -0 -0 -0 -0 -0 -8 -0 -2 -51 -91 -96 -68 -60 -33 -19 -23
-0 -0 -0 -0 -0 -4 -0 -0 -0 -0 -1 -3 -2 -2 -0 -0 -2 -0 -0 -0 -0 -3 -3 -0 -7 -2 -0 -0 -0 -0 -12 -25 -6 -2 -0 -0 -0 -4 -9 -2 -1 -26 -2 -0 -2 -29 -53 -56 -34 -38 -38 -23 -19 -30
-0 -0 -0 -0 -0 -0 -1 -4 -7 -7 -6 -4 -3 -0 -1 -1 -2 -2 -0 -0 -0 -0 -0 -6 -0 -0 -0 -0 -0 -0 -10 -25 -0 -0 -0 -0 -0 -6 -5 -49 -2 -157 -299 -1 -18 -1 -21 -55 -107 -125 -59 -6 -24 -6
-0 -0 -0 -0 -1 -1 -3 -6 -5 -7 -6 -3 -2 -2 -3 -3 -4 -1 -0 -1 -2 -0 -0 -0 -0 -15 -0 -0 -0 -0 -0 -0 -0 -0 -0 -0 -0 -9 -5 -19 -0 -0 -43 -15 -6 -4 -41 -150 -177 -79 -89 -53 -44 -51
-0 -1 -0 -0 -1 -3 -8 -5 -5 -5 -5 -4 -2 -3 -4 -9 -7 -0 -0 -1 -0 -1 -0 -0 -1 -0 -0 -0 -0 -0 -0 -0 -0 -0 -0 -1 -18 -0 -0 -4 -0 -2 -16 -0 -1 -49 -3 -0 -0 -0 -6 -0 -0 -5
-4 -2 -3 -3 -2 -3 -5 -4 -4 -5 -8 -0 -0 -13 -6 -8 -0 -0 -0 -0 -15 -0 -0 -0 -13 -2 -0 -21 -17 -3 -22 -0 -0 -0 -0 -29 -63 -1 -8 -3 -59 -102 -44 -77 -100 -16 -0 -0 -0 -0 -0 -0 -0 -0
-3 -2 -4 -6 -4 -7 -7 -5 -3 -10 -13 -13 -0 -0 -12 -7 -7 -1 -3 -0 -0 -0 -0 -0 -20 -0 -0 -0 -0 -1 -11 -0 -1 -0 -0 -0 -0 -1 -0 -0 -0 -0 -0 -0 -0 -0 -0 -0 -0 -0 -0 -0 -0 -0
-7 -7 -5 -7 -9 -14 -6 -4 -8 -14 -14 -0 -0 -0 -4 -0 -1 -0 -0 -0 -0 -0 -0 -0 -0 -4 -0 -22 -26 -1 -0 -0 -0 -0 -3 -0 -0 -0 -0 -0 -0 -0 -0 -0 -0 -0 -0 -0 -0 -0 -0 -0 -5 -0
-3 -0 -0 -0 -2 -5 -6 -0 -0 -0 -0 -0 -9 -1 -0 -0 -0 -50 -13 -0 -0 -0 -0 -0 -0 -8 -1 -1 -0 -0 -0 -0 -0 -0 -0 -0 -0 -0 -0 -0 -0 -0 -0 -0 -0 -0 -0 -0 -1 -3 -0 -0 -0 -0
-0 -0 -0 -0 -1 -10 -2 -0 -0 -0 -4 -0 -0 -2 -11 -0 -7 -0 -17 -0 -1 -0 -10 -1 -2 -0 -4 -14 -5 -27 -5 -0 -3 -0 -0 -0 -0 -0 -1 -0 -2 -1 -1 -2 -1 -10 -3 -0 -0 -9 -6 -2 -9 -0
-0 -0 -0 -0 -0 -0 -0 -0 -0 -2 -0 -0 -0 -0 -1 -17 -0 -7 -3 -6 -0 -0 -2 -0 -0 -3 -2 -1 -0 -0 -1 -1 -1 -0 -0 -0 -0 -0 -2 -18 -13 -4 -12 -13 -8 -5 -4 -5 -0 -4 -16 -22 -1 -1
-0 -0 -0 -0 -0 -0 -0 -0 -0 -0 -0 -0 -0 -0 -2 -1 -2 -5 -0 -0 -0 -4 -0 -20 -7 -0 -11 -0 -11 -6 -0 -0 -0 -0 -0 -0 -0 -0 -0 -1 -0 -0 -8 -36 -37 -4 -0 -0 -20 -1 -18 -20 -0 -48
-0 -0 -0 -0 -0 -0 -0 -0 -0 -0 -0 -0 -0 -1 -0 -1 -0 -0 -0 -0 -2 -4 -0 -8 -4 -0 -1 -0 -0 -18 -2 -2 -0 -0 -0 -0 -0 -12 -0 -1 -0 -0 -0 -0 -22 -36 -69 -57 -6 -18 -56 -9 -1 -11
-0 -0 -0 -0 -0 -0 -0 -0 -0 -1 -0 -0 -0 -0 -8 -10 -4 -8 -24 -0 -1 -1 -3 -56 -0 -0 -1 -0 -0 -0 -0 -0 -0 -0 -1 -3 -0 -5 -0 -1 -0 -3 -8 -10 -18 -0 -0 -0 -0 -0 -0 -1 -25 -16
-0 -0 -0 -0 -0 -0 -0 -0 -14 -7 -12 -1 -3 -0 -0 -0 -0 -0 -0 -0 -3 -0 -2 -0 -0 -0 -0 -0 -1 -5 -1 -0 -0 -1 -1 -7 -3 -1 -2 -6 -0 -0 -3 -6 -12 -26 -0 -0 -0 -0 -0 -0 -0 -0
-0 -0 -0 -0 -0 -0 -0 -0 -11 -21 -0 -0 -2 -6 -7 -1 -2 -0 -0 -0 -0 -0 -0 -0 -0 -0 -0 -1 -0 -0 -0 -0 -0 -1 -0 -7 -4 -2 -2 -6 -1 -0 -0 -0 -0 -15 -13 -0 -0 -0 -0 -0 -0 -0
-0 -0 -0 -0 -0 -0 -0 -0 -6 -0 -1 -0 -18 -13 -0 -0 -0 -0 -0 -0 -0 -0 -2 -0 -0 -0 -0 -0 -0 -0 -0 -0 -0 -2 -0 -0 -1 -3 -2 -1 -6 -1 -0 -0 -0 -1 -0 -0 -0 -0 -1 -0 -0 -0
-0 -0 -0 -0 -0 -0 -0 -0 -0 -0 -0 -0 -0 -0 -3 -0 -0 -2 -0 -1 -1 -0 -2 -0 -0 -0 -0 -0 -1 -0 -0 -0 -0 -0 -0 -0 -2 -0 -0 -0 -0 -1 -10 -4 -1 -0 -0 -1 -0 -0 -0 -0 -0 -0
-0 -0 -0 -0 -0 -0 -0 -0 -0 -0 -0 -0 -0 -0 -7 -0 -0 -0 -3 -3 -0 -3 -11 -0 -0 -0 -5 -0 -5 -0 -0 -0 -0 -0 -2 -0 -0 -3 -5 -2 -6 -7 -0 -0 -1 -0 -0 -0 -0 -0 -0 -0 -0 -0
-0 -0 -0 -0 -0 -0 -0 -0 -0 -0 -0 -0 -0 -0 -29 -0 -0 -0 -0 -0 -0 -0 -0 -0 -0 -0 -0 -0 -0 -0 -0 -0 -0 -0 -0 -12 -4 -0 -0 -0 -0 -0 -0 -0 -0 -0 -0 -0 -0 -0 -0 -0 -0 -0
-0 -0 -0 -0 -0 -1 -0 -0 -0 -0 -1 -0 -1 -11 -0 -9 -9 -1 -0 -0 -0 -0 -0 -0 -0 -0 -0 -0 -0 -0 -2 -3 -1 -8 -15 -10 -2 -0 -0 -0 -0 -0 -0 -0 -0 -0 -0 -0 -0 -0 -0 -0 -0 -0
-0 -0 -0 -0 -0 -10 -6 -13 -25 -25 -38 -13 -2 -1 -0 -0 -2 -2 -1 -1 -3 -17 -1 -6 -8 -7 -1 -0 -1 -0 -1 -0 -0 -0 -0 -0 -0 -0 -0 -0 -0 -0 -0 -0 -0 -0 -0 -0 -0 -0 -0 -0 -0 -0
-0 -0 -0 -0 -34 -29 -0 -0 -2 -0 -0 -1 -0 -0 -0 -0 -1 -3 -0 -0 -1 -4 -1 -0 -1 -0 -0 -0 -0 -0 -0 -0 -0 -0 -0 -0 -0 -0 -0 -0 -0 -0 -0 -0 -0 -0 -0 -0 -0 -0 -0 -0 -0 -0
-0 -0 -30 -3 -18 -5 -0 -0 -0 -0 -0 -0 -0 -0 -0 -1 -0 -0 -0 -0 -0 -0 -0 -0 -0 -0 -0 -0 -0 -0 -0 -0 -0 -0 -0 -0 -0 -0 -0 -0 -10 -0 -0 -0 -0 -0 -0 -0 -0 -0 -0 -0 -0 -0
-22 -41 -71 -0 -0 -0 -0 -0 -0 -0 -0 -0 -0 -0 -0 -0 -0 -7 -0 -0 -0 -0 -0 -0 -0 -0 -0 -0 -0 -0 -0 -0 -0 -0 -0 -0 -0 -0 -0 -0 -0 -1 -0 -0 -0 -0 -0 -0 -0 -0 -0 -2 -4 -2
-19 -0 -1 -33 -23 -4 -0 -0 -0 -0 -0 -0 -0 -0 -0 -0 -0 -0 -0 -0 -0 -0 -0 -0 -0 -0 -0 -0 -0 -0 -0 -0 -0 -0 -0 -0 -0 -0 -0 -0 -0 -0 -0 -0 -0 -0 -0 -0 -0 -0 -0 -0 -0 -0
-4 -1 -0 -0 -0 -0 -0 -0 -3 -0 -0 -0 -1 -0 -2 -0 -0 -0 -0 -0 -0 -1 -2 -0 -0 -0 -0 -0 -0 -0 -0 -0 -0 -0 -0 -0 -0 -0 -0 -0 -0 -0 -0 -0 -0 -0 -0 -0 -0 -0 -0 -0 -0 -0
-2 -0 -0 -0 -0 -0 -0 -0 -0 -0 -0 -0 -0 -0 -0 -0 -0 -0 -1 -6 -0 -0 -0 -0 -0 -0 -0 -0 -0 -0 -0 -0 -0 -0 -0 -0 -0 -0 -0 -0 -0 -0 -0 -0 -0 -0 -0 -0 -0 -0 -0 -0 -0 -0
-0 -0 -0 -0 -0 -0 -0 -0 -0 -3 -0 -0 -0 -0 -0 -2 -6 -0 -0 -0 -0 -0 -0 -0 -0 -0 -0 -0 -0 -0 -0 -0 -0 -0 -0 -0 -0 -0 -0 -0 -0 -0 -0 -0 -0 -0 -0 -0 -4 -0 -0 -0 -0 -0
-1 -0 -0 -0 -0 -0 -0 -4 -0 -4 -0 -0 -0 -0 -0 -0 -0 -0 -0 -0 -0 -0 -0 -0 -0 -0 -0 -0 -0 -0 -0 -0 -0 -0 -0 -0 -0 -0 -0 -0 -0 -0 -0 -0 -0 -0 -0 -0 -0 -0 -0 -0 -0 -1
-10 -4 -1 -1 -0 -0 -2 -5 -1 -5 -0 -0 -0 -0 -0 -1 -1 -0 -0 -0 -0 -0 -0 -0 -0 -0 -0 -0 -0 -0 -0 -0 -0 -0 -0 -0 -0 -0 -0 -0 -0 -0 -0 -0 -0 -0 -0 -0 -0 -0 -0 -0 -0 -0
-0 -0 -0 -0 -0 -0 -0 -0 -1 -0 -0 -1 -0 -0 -0 -0 -0 -0 -0 -0 -0 -0 -0 -0 -0 -0 -0 -0 -0 -0 -0 -0 -0 -0 -0 -0 -0 -0 -0 -0 -0 -0 -0 -0 -0 -0 -0 -0 -0 -0 -0 -0 -0 -0
Wind_Speed
23 24 24 24 24 24 21 20 18 16 16 16 14 13 14 13 8 9 5 9 6 4 9 20 24 21 18 14 10 9 7 6 3 7 11 13 15 19 21 22 25 23 21 19 19 22 24 5 8 12 7 11 13 13
23 23 23 23 24 23 20 17 15 14 16 12 13 12 7 6 7 8 5 5 8 7 11 18 22 22 23 20 16 13 9 2 4 5 3 7 5 10 16 17 26 26 20 17 12 13 10 8 9 2 7 9 8 8
22 20 20 22 20 17 13 13 12 12 13 13 9 7 8 8 9 11 5 5 1 3 11 18 19 21 24 26 20 12 10 5 5 8 4 4 7 4 9 12 20 8 22 19 13 12 10 12 9 4 5 4 2 5
19 19 20 17 16 16 14 13 12 12 11 8 7 8 10 8 9 10 4 2 2 4 7 11 3 4 5 12 22 19 17 5 5 6 7 5 6 6 3 7 4 6 15 7 16 17 17 14 11 10 10 9 11 16
16 17 16 16 17 17 16 14 11 10 8 8 8 10 9 7 5 6 6 7 6 3 7 13 20 19 18 16 13 19 16 13 7 4 3 4 3 2 8 4 4 3 6 7 10 17 19 14 11 8 10 13 12 15
14 14 15 16 15 15 15 15 13 11 10 9 9 9 7 8 8 5 2 2 6 6 7 7 9 4 3 11 10 12 10 7 3 3 4 5 7 7 4 3 8 5 12 5 12 21 22 18 19 19 14 11 12 13
14 14 15 16 15 13 12 14 13 11 11 11 10 10 9 8 8 3 4 4 7 2 3 6 5 5 5 11 9 7 9 4 3 3 7 2 4 6 3 4 9 10 10 10 16 18 16 14 10 16 18 14 12 12
16 14 14 14 15 12 13 12 14 14 13 13 12 12 11 11 12 7 2 4 7 2 3 4 7 5 12 9 8 7 7 6 8 6 2 3 6 2 2 7 10 10 15 18 19 18 17 13 15 15 16 18 10 11
14 14 14 13 13 13 14 16 17 19 18 16 15 14 8 6 2 2 8 4 2 3 3 3 3 4 8 4 3 9 7 9 5 1 2 3 1 1 8 8 10 13 9 13 16 19 19 17 15 14 16 14 16 9
14 14 15 15 15 15 16 17 19 22 23 16 6 3 4 2 2 8 6 4 4 6 5 5 5 4 9 6 6 6 3 2 1 5 1 3 2 8 10 11 11 13 11 8 13 16 18 14 11 7 5 6 10 15
14 14 14 14 14 15 18 18 18 22 12 3 4 3 8 2 4 3 3 3 4 4 4 4 7 7 6 4 5 6 3 0 1 4 1 3 2 5 9 11 9 10 9 9 10 10 9 6 5 2 6 1 6 0
14 15 15 15 17 17 21 20 18 10 6 8 7 7 5 3 2 5 5 4 5 3 3 4 4 5 1 4 5 7 5 1 3 3 4 3 3 4 9 9 8 7 8 8 8 8 3 7 10 7 10 7 3 5
16 16 16 16 18 20 21 20 17 10 13 4 4 3 5 2 3 6 8 2 4 7 5 4 5 3 1 9 7 1 4 4 6 5 4 3 4 2 6 5 8 8 7 5 3 5 7 7 7 7 6 5 6 4
18 18 18 17 17 20 21 18 13 8 4 4 5 5 5 5 4 5 9 8 7 6 5 5 4 4 4 3 4 7 7 3 3 4 4 5 5 2 3 7 8 4 6 8 10 5 6 9 8 8 8 8 6 7
22 22 16 12 18 22 21 15 11 4 3 4 3 4 4 5 11 12 11 6 8 10 7 2 5 7 6 6 6 7 6 4 6 4 5 5 7 2 4 3 5 10 7 6 8 8 8 7 8 10 8 7 7 8
24 22 6 18 22 25 21 12 6 1 2 3 4 2 5 7 11 11 12 12 11 10 5 3 6 5 8 6 8 9 5 5 3 1 6 6 7 7 3 1 5 8 9 8 5 9 8 7 6 9 7 7 8 8
25 6 17 21 24 26 6 5 3 2 5 3 3 9 9 9 9 12 11 11 13 9 9 5 8 7 3 5 5 5 3 0 4 4 4 4 3 5 4 4 5 8 7 6 6 5 4 6 8 7 7 5 5 5
9 13 18 20 19 12 1 3 5 4 5 7 8 9 9 8 10 10 10 8 8 9 8 7 6 10 6 5 3 3 1 0 5 4 3 5 5 5 4 6 7 8 8 9 5 7 7 8 7 5 4 3 3 5
15 15 18 18 11 6 5 4 5 5 5 7 8 7 7 7 8 8 8 7 8 8 7 7 8 6 5 5 6 8 7 5 6 6 6 8 8 7 7 7 9 10 10 10 11 8 8 9 8 9 9 9 9 7
20 11 11 15 8 4 4 3 3 4 6 5 7 7 7 8 8 9 10 10 9 9 9 7 8 7 7 8 8 8 8 7 6 6 5 6 7 9 10 8 6 6 7 6 9 12 8 8 8 9 8 8 8 9
10 11 11 7 2 5 4 5 3 4 4 4 6 4 7 10 12 11 12 11 11 13 11 9 9 9 11 9 8 8 9 9 8 7 7 7 7 7 7 6 6 7 7 7 8 7 7 8 9 9 8 8 9 8
6 11 5 2 3 4 3 4 4 6 3 3 9 9 7 7 8 9 8 8 5 5 5 6 7 8 10 12 9 9 8 9 8 4 4 3 1 4 4 5 5 6 6 7 7 7 7 8 8 9 8 8 8 7
10 3 4 3 4 3 2 3 3 4 4 5 5 4 2 4 5 7 4 6 4 4 5 3 4 6 7 12 13 15 15 11 7 6 4 3 4 4 4 4 5 5 7 7 6 7 7 7 7 8 8 9 8 8
3 5 6 5 4 4 3 4 2 2 3 2 3 3 3 3 0 2 6 4 3 2 3 9 10 8 10 12 11 12 13 11 11 9 10 11 10 6 3 4 4 6 7 8 9 9 10 10 10 9 8 10 9 10
5 4 3 4 2 4 3 4 3 2 4 2 2 2 3 1 3 5 5 6 8 11 10 9 8 10 10 10 10 11 14 11 10 11 11 11 11 10 10 10 13 11 11 10 10 12 11 10 10 11 11 10 11 12
3 2 3 7 4 5 5 5 5 5 3 3 4 2 2 2 6 7 3 7 7 8 9 10 10 10 10 11 11 11 12 11 9 8 8 8 9 10 10 10 10 10 12 11 11 13 13 14 14 16 14 14 9 12
4 5 1 1 3 3 3 2 1 2 3 4 3 4 4 5 7 4 2 5 8 9 10 11 11 11 10 9 7 7 8 10 11 11 8 4 6 10 10 11 12 11 11 11 12 13 12 14 15 15 14 14 14 14
5 6 7 6 3 2 5 6 6 7 7 5 3 4 5 6 5 6 7 10 13 13 11 8 6 8 9 9 10 10 8 11 11 11 10 7 11 11 11 10 10 8 10 9 10 11 12 13 13 13 12 12 11 11
3 5 4 7 5 3 6 6 7 7 9 8 3 6 4 3 5 7 5 5 4 1 4 5 5 7 10 10 9 9 10 10 14 16 16 10 10 10 10 10 10 10 9 11 8 7 11 11 11 10 11 10 10 11
8 4 2 6 9 5 5 8 10 10 9 8 6 8 4 2 3 0 1 2 3 4 8 10 10 10 11 11 10 11 10 11 12 12 12 12 12 11 11 11 10 10 9 10 10 10 7 11 9 9 11 12 11 11
4 7 6 5 7 5 9 9 7 8 8 9 7 7 4 4 5 4 3 5 7 9 9 10 10 10 10 10 10 9 9 9 12 13 12 11 10 10 10 10 10 9 10 10 9 9 11 11 11 12 12 13 12 11
3 4 4 4 5 6 11 5 2 3 4 5 5 3 4 3 2 2 7 9 9 9 8 9 9 9 10 9 9 6 3 6 9 10 14 10 9 10 10 9 9 10 11 10 9 10 12 13 11 12 12 14 14 14
2 7 6 6 3 3 6 6 5 4 3 4 5 1 3 5 5 3 4 5 6 8 8 8 6 6 8 8 9 8 7 9 12 8 8 5 7 9 10 9 10 12 14 12 12 13 14 16 14 14 13 13 13 13
Wind_Direction
313 311 312 313 314 313 310 306 305 310 304 295 292 284 286 280 254 217 257 213 220 235 270 269 279 279 282 275 266 312 236 162 236 244 240 239 239 234 238 228 212 203 204 218 215 230 234 81 188 229 10 322 312 303
318 320 318 314 311 308 311 311 305 304 305 301 302 296 287 271 245 218 274 219 199 232 273 306 279 273 266 264 285 289 299 348 281 267 299 324 329 301 238 255 205 208 209 206 221 213 88 83 76 40 335 313 317 304
324 328 325 323 334 342 335 328 319 316 315 303 310 310 299 273 246 217 264 295 297 311 270 252 254 249 223 233 247 261 257 197 240 337 293 273 274 292 266 249 212 224 212 207 149 124 101 87 79 110 30 22 311 77
326 332 333 337 342 349 346 337 323 313 320 336 313 313 313 290 244 232 252 200 270 281 284 267 337 261 249 217 206 220 246 139 320 322 295 265 273 360 262 307 340 18 298 175 99 116 102 79 76 53 18 44 47 61
332 341 348 347 344 350 344 339 346 348 335 330 322 319 315 299 282 252 235 240 227 233 300 303 297 267 228 220 208 206 226 255 279 316 291 268 278 355 299 249 39 11 4 354 222 126 87 88 89 103 74 56 48 79
348 347 347 347 352 357 3 9 8 1 354 346 345 342 322 286 275 282 238 186 221 216 278 303 2 214 218 160 190 189 205 209 139 296 245 266 291 312 291 83 27 10 290 346 57 92 95 84 60 37 60 83 88 71
345 345 344 346 346 352 359 354 352 350 341 330 322 318 317 307 288 280 295 342 338 337 292 288 277 222 150 158 177 180 187 147 122 253 235 299 296 348 346 29 30 22 18 79 102 107 89 69 60 39 40 46 56 75
352 346 339 343 347 354 350 348 345 334 316 303 298 295 290 285 274 262 351 185 294 188 254 274 298 306 182 166 157 162 163 184 182 229 141 6 323 303 67 13 90 74 68 62 70 80 92 89 57 29 17 8 61 45
353 350 344 337 340 343 344 338 336 330 324 305 289 287 267 231 241 66 142 148 227 266 289 270 279 296 215 35 291 180 183 195 210 164 47 179 310 341 68 56 50 66 70 90 86 81 70 69 63 43 39 7 351 32
348 346 346 343 341 342 335 333 330 325 321 305 278 220 267 56 107 169 170 184 194 192 219 261 271 294 351 225 149 167 177 168 235 80 243 45 71 34 57 55 52 68 69 74 90 76 80 62 34 39 80 3 331 339
340 339 338 335 333 332 330 328 330 323 289 288 310 296 346 342 260 235 261 228 217 231 223 296 302 316 38 9 4 42 162 104 157 189 182 85 20 44 38 58 48 46 98 101 93 95 91 104 121 12 338 166 245 266
328 324 322 321 316 318 332 325 324 302 343 331 304 285 270 283 287 296 309 311 245 220 230 223 312 322 6 202 238 162 191 146 80 123 82 67 358 34 62 51 28 27 56 61 79 80 151 159 142 166 183 202 301 72
325 320 320 313 309 315 328 328 325 303 275 211 230 313 344 16 337 321 338 351 339 327 36 345 296 303 339 173 218 261 128 48 98 40 58 72 210 98 132 140 132 144 118 77 39 193 146 102 111 104 79 57 120 137
328 320 312 308 308 319 327 330 327 304 278 23 352 10 8 349 332 304 321 322 299 294 5 329 326 287 304 325 28 15 71 21 84 72 74 140 141 157 138 172 131 112 98 119 116 100 36 71 71 81 98 105 89 44
325 321 316 313 336 330 331 327 301 279 24 48 22 5 328 296 275 264 275 330 335 330 344 164 287 6 11 359 19 19 45 74 20 43 87 159 140 120 97 75 117 119 124 97 66 66 52 61 77 66 57 68 71 87
325 310 358 349 338 328 325 298 226 257 157 162 183 279 307 333 356 0 360 3 345 323 266 236 360 35 31 24 12 17 29 27 354 16 125 124 147 147 142 96 102 98 124 112 80 64 50 62 61 80 53 50 55 53
310 339 3 345 332 313 293 286 287 273 5 6 323 13 354 353 358 2 349 358 326 355 12 28 31 25 100 32 37 15 340 24 327 17 79 112 90 93 42 64 42 79 73 85 98 72 31 80 56 53 38 17 83 70
303 328 344 330 327 303 295 346 306 2 17 25 5 11 352 7 0 355 4 6 356 4 36 56 45 30 43 40 24 8 308 311 170 190 101 88 87 95 89 73 67 58 41 39 42 89 22 18 43 60 80 345 199 95
310 312 311 305 317 293 339 31 328 358 15 40 353 3 2 9 10 8 5 18 3 24 32 43 44 34 42 30 26 36 41 51 78 72 69 70 66 54 72 96 85 82 68 48 26 46 68 43 17 10 12 2 349 35
296 287 294 294 293 290 334 32 267 342 8 345 6 1 17 15 16 15 25 29 53 53 56 63 67 52 42 35 27 32 31 35 55 73 79 98 103 78 52 55 57 84 86 83 74 19 25 19 20 358 13 341 341 350
273 9 315 280 8 6 355 347 18 19 328 337 6 346 26 24 29 26 9 24 36 30 40 31 41 37 43 41 33 27 34 36 50 42 38 43 20 47 59 69 58 46 37 31 21 36 24 21 5 349 345 2 353 315
358 324 292 359 339 1 30 29 357 346 319 346 16 28 15 11 17 17 11 33 34 28 15 18 30 39 55 51 41 39 66 67 69 45 354 330 44 71 60 21 21 26 45 29 17 15 15 22 13 341 349 353 331 345
287 238 291 331 349 41 329 324 49 43 24 17 9 58 38 50 17 355 33 10 12 340 349 39 91 108 87 65 49 27 10 2 38 57 45 28 89 25 8 21 22 37 4 27 7 10 3 354 21 329 355 349 342 349
202 339 349 355 353 4 305 16 16 54 102 42 35 9 61 53 148 90 55 53 28 199 51 27 29 36 47 35 35 37 9 5 359 13 34 352 349 14 351 343 8 36 35 5 1 358 355 351 331 339 1 341 358 358
315 347 299 316 221 310 34 37 45 44 58 40 45 51 39 4 70 72 45 20 13 31 24 32 44 38 23 23 20 20 17 4 3 357 24 357 359 350 357 19 60 35 19 355 353 349 344 340 341 345 337 341 1 350
21 84 6 356 15 344 358 6 24 11 357 3 20 335 144 249 62 58 40 344 19 25 26 22 18 16 27 20 10 7 2 355 1 0 18 11 22 11 7 1 355 23 3 7 348 348 354 352 344 345 342 346 1 342
353 17 36 131 305 303 318 21 37 329 8 21 309 323 13 53 60 62 56 18 25 19 26 21 14 7 4 5 6 6 356 358 9 344 345 8 56 52 14 7 26 13 337 16 1 353 3 353 346 342 342 338 336 334
343 348 346 348 339 34 333 343 22 9 10 13 37 1 59 26 57 30 29 20 23 22 12 348 340 338 356 359 355 354 15 7 2 358 341 7 46 49 26 8 26 352 344 28 6 356 5 354 339 334 340 335 339 341
280 28 353 322 45 32 359 33 9 27 353 333 34 68 80 66 27 41 36 17 23 1 292 313 352 357 2 360 12 7 28 16 9 6 6 10 14 15 13 2 356 355 355 349 66 47 28 348 327 335 332 338 344 4
8 5 43 15 37 44 30 48 55 62 46 59 89 101 84 175 202 63 265 272 284 302 2 1 14 20 3 358 10 7 46 35 28 18 356 355 0 2 359 349 353 352 355 351 348 354 41 330 350 4 10 2 6 351
14 12 26 56 54 27 91 87 84 70 76 85 82 115 149 154 153 241 22 309 349 14 24 358 12 27 8 5 20 13 3 43 34 25 14 346 355 359 346 355 358 356 358 348 354 358 3 354 5 8 2 357 356 344
357 4 5 350 93 100 129 130 113 90 130 136 141 154 139 164 143 69 21 359 11 12 27 12 15 21 24 359 14 36 299 17 39 25 16 5 360 357 347 7 359 1 351 341 356 357 9 6 1 3 356 355 352 349
12 48 18 358 15 28 119 132 169 162 189 100 95 319 88 64 67 31 81 50 29 4 358 1 25 18 42 16 17 356 349 63 99 119 104 48 346 331 324 13 359 360 354 354 6 4 6 1 1 0 352 347 343 344